Regional Weather Roundup
Issued by NWS

Home | Current Version | Previous Version | Text Only | Print | Product List | Glossary On
Versions: 1 2 3 4 5 6 7 8 9 10 11 12 13 14 15 16 17 18 19 20 21 22 23 24 25 26 27 28 29 30 31 32 33 34 35 36 37 38 39 40 41 42 43 44 45 46 47 48 49 50
000
ASUS45 KBOI 240110
RWRID
WEATHER ROUNDUP FOR IDAHO
NATIONAL WEATHER SERVICE BOISE ID
700 PM MDT TUE SEP 23 2014

NOTE: "FAIR" INDICATES FEW OR NO CLOUDS BELOW 12000 FEET
WITH NO SIGNIFICANT WEATHER AND/OR OBSTRUCTIONS TO VISIBILITY

IDZ012-014-240200-
SOUTHWEST IDAHO


CITY           SKY/WX    TMP DP  RH WIND       PRES   REMARKS
BOISE          CLOUDY    79  53  40 W5        29.91R
CALDWELL       CLOUDY    77  54  44 N5        29.91F
MOUNTAIN HOME  CLOUDY    82  50  32 SE12      29.90F
$$

IDZ016-017-240200-
SOUTHCENTRAL IDAHO


CITY           SKY/WX    TMP DP  RH WIND       PRES   REMARKS
BURLEY         MOCLDY    78  52  40 E6        30.02S
JEROME         MOCLDY    76  47  35 E9        30.01F
TWIN FALLS     MOCLDY    74  54  49 NE8       30.00F
$$

IDZ019>023-240200-
SOUTHEAST IDAHO


CITY           SKY/WX    TMP DP  RH WIND       PRES   REMARKS
IDAHO FALLS    MOCLDY    74  50  42 SW5       30.11F
POCATELLO      PTCLDY    76  48  37 NE3       30.09F
REXBURG        MOCLDY    72  47  40 S5        30.12S
$$

IDZ006-010-011-018-031-032-240200-
CENTRAL IDAHO MOUNTAINS


CITY           SKY/WX    TMP DP  RH WIND       PRES   REMARKS
MCCALL         MOCLDY    70  46  42 S5        30.04F
HAILEY         MOCLDY    70  52  52 CALM      30.13F
STANLEY          N/A     68  39  34 S5        30.17S
SALMON         MOCLDY    70  57  64 CALM      29.99R
CHALLIS        MOCLDY    68  53  58 SW3       30.06F
$$

IDZ002-004-006-007-026-240200-
NORTHERN IDAHO


CITY           SKY/WX    TMP DP  RH WIND       PRES   REMARKS
LEWISTON       CLOUDY    79  58  48 W5        29.84S
LOWELL           N/A     70  61  73 CALM      29.85S
COEUR D`ALENE  CLOUDY    72  55  56 CALM      29.88F
MULLAN PASS    CLOUDY    60  45  57 SW8       30.09R
$$



USA.gov is the U.S. government's official web portal to all federal, state and local government web resources and services.